Weather in Semiletka

Russia / Republic of Bashkortostan     55°21′36″N   54°36′44″E
temp.,
°C
wind,
m/s
gust,
m/s
humid.,
%
clouds,
%
prec.,
mm/h
press.,
hPa
HPBL,
m
25 february, thu
thu2523:00−25nnw5109419 0.0 1030172
02:00−28nnw33970 0.0 103130
05:00−28nw33970 0.0 103323
08:00−29wnw229914 0.0 103319
11:00−25sw11957 0.0 103382
14:00−21ssw23870 0.0 1032302
17:00−19sse369121 0.0 1030273
20:00−24sse349596 0.0 102879
26 february, fri
fri2623:00−23sse489097 0.0 1027168
02:00−22sse5109098 0.0 1026262
05:00−21sse5109598 0.1 1025353
08:00−21sse5109498 0.0 1023371
11:00−20sse699398 0.1 1023396
14:00−18sse6991100 0.0 1021487
17:00−16sse71192100 0.1 1019538
20:00−17sse6129293 0.1 1017471
27 february, sat
sat2723:00−16sse7139196 0.1 1014501
02:00−14sse91593100 0.2 1009519
05:00−12sse101893100 1.5 1003579
08:00−9sse91594100 3.6 998691
11:00−5s71295100 5.4 997516
14:000ssw5999100 1.3 996515
17:000sw479898 1.8 996412
20:00−1ssw3698100 0.4 996176
28 february, sun
sun2823:00−1ssw4997100 1.0 997305
02:00−2ssw3897100 0.3 996228
05:00−2ssw3698100 0.8 997168
08:00−3sw3497100 0.4 998105
11:00−3wnw349797 0.6 999212
14:00−6nw459596 0.3 1001248
17:00−7nw469496 0.4 1003293
20:00−9nw489593 0.2 1005221
1 march, mon
mon123:00−11nnw589593 0.3 1008244
02:00−14nnw589699 0.1 1009201
05:00−15nnw589699 0.3 1011235
08:00−16nnw479696 0.1 1013226
11:00−16nnw579598 0.3 1015277
14:00−14nnw4695100 0.1 1017338
17:00−14nnw4794100 0.1 1018385
20:00−18nw4698100 0.1 1019104